When you browse on this site, cookies collect data to enhance your experience and personalize the content and advertising you see.
Visit our Privacy Policy to learn more. By continuing to use the site, you agree to this use of cookies and data.
  • In United Kingdom
  • List of Countries
  • For 7 days
  • Water Temperature
  • Satellite Maps
  • Weather Map
  • Weather Widgets
  • user-avatar
    Login

    Hourly Weather Kotonu

    Today, 11 December, Tuesday

    Time Temperature Precipitation Wind Pressure Humidity
    00:00 +29°C° 0 mm 2 mps 759 mmHg 78%
    01:00 +28°C° 0 mm 2 mps 759 mmHg 80%
    02:00 +28°C° 0 mm 1 mps 759 mmHg 81%
    03:00 +28°C° 0 mm 1 mps 759 mmHg 82%
    04:00 +27°C° 0 mm 1 mps 759 mmHg 84%
    05:00 +27°C° 0 mm 1 mps 759 mmHg 85%
    06:00 +27°C° 0 mm 1 mps 759 mmHg 87%
    07:00 +30°C° 0 mm 1 mps 759 mmHg 75%
    08:00 +32°C° 0 mm 1 mps 759 mmHg 64%
    09:00 +35°C° 0 mm 1 mps 760 mmHg 53%
    10:00 +36°C° 0 mm 1 mps 759 mmHg 46%
    11:00 +37°C° 0 mm 1 mps 759 mmHg 40%
    12:00 +39°C° 0 mm 2 mps 759 mmHg 35%
    13:00 +39°C° 0 mm 2 mps 758 mmHg 38%
    14:00 +38°C° 0 mm 3 mps 758 mmHg 41%
    15:00 +37°C° 0 mm 4 mps 757 mmHg 44%
    16:00 +35°C° 0 mm 4 mps 757 mmHg 51%
    17:00 +34°C° 0 mm 4 mps 758 mmHg 59%
    18:00 +32°C° 0 mm 4 mps 758 mmHg 66%
    19:00 +32°C° 0 mm 4 mps 758 mmHg 68%
    20:00 +30°C° 0 mm 4 mps 759 mmHg 70%
    21:00 +30°C° 0 mm 4 mps 760 mmHg 73%
    22:00 +30°C° 0.2 mm 4 mps 759 mmHg 75%
    23:00 +29°C° 0.2 mm 3 mps 759 mmHg 77%

    Tomorrow, 12 December, Wednesday

    Time Temperature Precipitation Wind Pressure Humidity
    00:00 +29°C° 0.2 mm 3 mps 759 mmHg 79%
    01:00 +29°C° 0 mm 3 mps 759 mmHg 79%
    02:00 +28°C° 0 mm 3 mps 758 mmHg 80%
    03:00 +28°C° 0 mm 3 mps 758 mmHg 80%
    04:00 +28°C° 0.2 mm 2 mps 758 mmHg 82%
    05:00 +28°C° 0.2 mm 2 mps 759 mmHg 83%
    06:00 +27°C° 0.2 mm 1 mps 759 mmHg 85%
    07:00 +29°C° 0.1 mm 2 mps 759 mmHg 76%
    08:00 +31°C° 0.1 mm 2 mps 760 mmHg 67%
    09:00 +34°C° 0.1 mm 2 mps 760 mmHg 58%
    10:00 +35°C° 0 mm 2 mps 760 mmHg 51%
    11:00 +37°C° 0 mm 2 mps 760 mmHg 45%
    12:00 +38°C° 0 mm 2 mps 759 mmHg 38%
    13:00 +38°C° 0 mm 3 mps 759 mmHg 41%
    14:00 +37°C° 0 mm 3 mps 758 mmHg 44%
    15:00 +36°C° 0 mm 4 mps 757 mmHg 47%
    16:00 +35°C° 0 mm 4 mps 758 mmHg 53%
    17:00 +33°C° 0 mm 4 mps 758 mmHg 59%
    18:00 +32°C° 0 mm 4 mps 758 mmHg 65%
    19:00 +32°C° 0 mm 4 mps 759 mmHg 67%
    20:00 +30°C° 0 mm 4 mps 759 mmHg 69%
    21:00 +30°C° 0 mm 4 mps 760 mmHg 72%
    22:00 +30°C° 0 mm 4 mps 760 mmHg 73%
    23:00 +29°C° 0 mm 4 mps 760 mmHg 75%

    Day after tomorrow, 13 December, Thursday

    Time Temperature Precipitation Wind Pressure Humidity
    00:00 +29°C° 0 mm 4 mps 760 mmHg 77%
    01:00 +29°C° 0 mm 4 mps 759 mmHg 78%
    02:00 +29°C° 0 mm 4 mps 759 mmHg 79%
    03:00 +28°C° 0 mm 3 mps 758 mmHg 80%
    04:00 +28°C° 0 mm 3 mps 759 mmHg 80%
    05:00 +28°C° 0 mm 2 mps 759 mmHg 81%
    06:00 +28°C° 0 mm 2 mps 759 mmHg 82%
    07:00 +30°C° 0 mm 2 mps 760 mmHg 73%
    08:00 +32°C° 0 mm 2 mps 760 mmHg 64%
    09:00 +35°C° 0 mm 2 mps 760 mmHg 55%
    10:00 +36°C° 0 mm 2 mps 760 mmHg 49%
    11:00 +38°C° 0 mm 2 mps 759 mmHg 44%
    12:00 +39°C° 0 mm 2 mps 759 mmHg 38%
    13:00 +38°C° 0 mm 2 mps 758 mmHg 42%
    14:00 +37°C° 0 mm 3 mps 758 mmHg 46%
    15:00 +36°C° 0 mm 4 mps 757 mmHg 50%
    16:00 +35°C° 0 mm 4 mps 757 mmHg 56%
    17:00 +33°C° 0 mm 4 mps 757 mmHg 63%
    18:00 +32°C° 0 mm 4 mps 758 mmHg 69%
    19:00 +32°C° 0 mm 4 mps 758 mmHg 71%
    20:00 +30°C° 0 mm 4 mps 759 mmHg 73%
    21:00 +30°C° 0 mm 4 mps 759 mmHg 75%
    22:00 +30°C° 0 mm 4 mps 759 mmHg 76%
    23:00 +29°C° 0 mm 4 mps 759 mmHg 78%

    14 December, Friday

    Time Temperature Precipitation Wind Pressure Humidity
    00:00 +29°C° 0 mm 4 mps 759 mmHg 80%
    01:00 +29°C° 0 mm 4 mps 759 mmHg 81%
    02:00 +29°C° 0 mm 3 mps 758 mmHg 82%
    03:00 +28°C° 0 mm 3 mps 758 mmHg 83%
    04:00 +28°C° 0 mm 3 mps 758 mmHg 84%
    05:00 +28°C° 0 mm 2 mps 759 mmHg 85%
    06:00 +28°C° 0 mm 2 mps 759 mmHg 86%
    07:00 +29°C° 0 mm 2 mps 760 mmHg 78%
    08:00 +31°C° 0 mm 2 mps 760 mmHg 70%
    09:00 +34°C° 0 mm 2 mps 761 mmHg 62%
    10:00 +35°C° 0 mm 2 mps 760 mmHg 57%
    11:00 +36°C° 0 mm 2 mps 759 mmHg 52%
    12:00 +37°C° 0 mm 2 mps 759 mmHg 46%
    13:00 +37°C° 0.1 mm 3 mps 758 mmHg 48%
    14:00 +37°C° 0.1 mm 4 mps 757 mmHg 49%
    15:00 +36°C° 0.1 mm 4 mps 757 mmHg 50%
    16:00 +35°C° 0 mm 4 mps 757 mmHg 57%
    17:00 +33°C° 0 mm 5 mps 757 mmHg 65%
    18:00 +32°C° 0 mm 5 mps 758 mmHg 72%
    19:00 +30°C° 0 mm 5 mps 758 mmHg 74%
    20:00 +30°C° 0 mm 5 mps 759 mmHg 76%
    21:00 +30°C° 0 mm 4 mps 759 mmHg 78%
    22:00 +29°C° 0 mm 4 mps 759 mmHg 80%
    23:00 +29°C° 0 mm 4 mps 759 mmHg 81%

    15 December, Saturday

    Time Temperature Precipitation Wind Pressure Humidity
    00:00 +29°C° 0 mm 4 mps 759 mmHg 83%
    01:00 +29°C° 0 mm 4 mps 758 mmHg 83%
    02:00 +29°C° 0 mm 3 mps 758 mmHg 84%
    03:00 +29°C° 0 mm 3 mps 758 mmHg 85%
    04:00 +29°C° 0 mm 3 mps 758 mmHg 84%
    05:00 +29°C° 0 mm 3 mps 759 mmHg 84%
    06:00 +29°C° 0 mm 2 mps 759 mmHg 83%
    07:00 +30°C° 0.1 mm 2 mps 760 mmHg 76%
    08:00 +31°C° 0.1 mm 2 mps 760 mmHg 70%
    09:00 +32°C° 0.1 mm 2 mps 760 mmHg 63%
    10:00 +34°C° 0 mm 2 mps 760 mmHg 61%
    11:00 +35°C° 0 mm 3 mps 759 mmHg 58%
    12:00 +35°C° 0 mm 3 mps 759 mmHg 56%
    13:00 +36°C° 0.1 mm 3 mps 758 mmHg 54%
    14:00 +36°C° 0.1 mm 3 mps 757 mmHg 53%
    15:00 +36°C° 0.1 mm 4 mps 757 mmHg 51%
    16:00 +35°C° 0 mm 4 mps 757 mmHg 58%
    17:00 +33°C° 0 mm 5 mps 757 mmHg 65%
    18:00 +32°C° 0 mm 5 mps 758 mmHg 72%
    19:00 +30°C° 0 mm 5 mps 758 mmHg 74%
    20:00 +30°C° 0 mm 5 mps 759 mmHg 76%
    21:00 +30°C° 0 mm 5 mps 759 mmHg 79%
    22:00 +30°C° 0 mm 5 mps 759 mmHg 80%
    23:00 +29°C° 0 mm 5 mps 759 mmHg 81%

    16 December, Sunday

    Time Temperature Precipitation Wind Pressure Humidity
    00:00 +29°C° 0 mm 4 mps 758 mmHg 83%
    01:00 +29°C° 0 mm 4 mps 758 mmHg 83%
    02:00 +29°C° 0 mm 4 mps 758 mmHg 84%
    03:00 +28°C° 0 mm 4 mps 758 mmHg 85%
    04:00 +28°C° 0 mm 4 mps 758 mmHg 85%
    05:00 +28°C° 0 mm 3 mps 758 mmHg 86%
    06:00 +28°C° 0 mm 3 mps 759 mmHg 86%
    07:00 +29°C° 0.2 mm 3 mps 759 mmHg 80%
    08:00 +30°C° 0.2 mm 3 mps 760 mmHg 74%
    09:00 +33°C° 0.2 mm 3 mps 760 mmHg 68%
    10:00 +34°C° 1 mm 3 mps 760 mmHg 63%
    11:00 +34°C° 1 mm 3 mps 759 mmHg 59%
    12:00 +35°C° 1 mm 3 mps 758 mmHg 55%
    13:00 +35°C° 0.2 mm 3 mps 758 mmHg 54%
    14:00 +35°C° 0.2 mm 4 mps 757 mmHg 54%
    15:00 +35°C° 0.2 mm 4 mps 757 mmHg 54%
    16:00 +34°C° 0 mm 4 mps 757 mmHg 60%
    17:00 +33°C° 0 mm 4 mps 758 mmHg 66%
    18:00 +30°C° 0 mm 5 mps 758 mmHg 73%
    19:00 +30°C° 0 mm 4 mps 758 mmHg 74%
    20:00 +30°C° 0 mm 4 mps 759 mmHg 76%
    21:00 +30°C° 0 mm 4 mps 759 mmHg 78%
    22:00 +29°C° 0 mm 4 mps 759 mmHg 80%
    23:00 +29°C° 0 mm 4 mps 759 mmHg 81%
    Show more